382  
ASUS41 KRLX 130710  
RWRRLX  
REGIONAL WEATHER ROUNDUP  
NATIONAL WEATHER SERVICE CHARLESTON WV  
300 AM EDT TUE APR 13 2021  
 
NOTE: "FAIR" INDICATES FEW OR NO CLOUDS BELOW 12,000 FEET WITH NO  
SIGNIFICANT WEATHER AND/OR S TO VISIBILITY
.  
 
WVZ003-130800-  
NORTHERN PANHANDLE OF WEST VIRGINIA  
 
CITY SKY/WX TMP DP RH WIND PRES REMARKS
 
WHEELING CLOUDY 50 50 100 S3 29.97S  

 
 
WVZ009-130800-  
NORTHWEST WEST VIRGINIA  
 
CITY SKY/WX TMP DP RH WIND PRES REMARKS
 
PARKERSBURG CLEAR 48 45 89 CALM 30.00R  

 
 
WVZ006-130800-  
WESTERN WEST VIRGINIA  
 
CITY SKY/WX TMP DP RH WIND PRES REMARKS
 
HUNTINGTON CLEAR 48 43 82 CALM 30.01S  

 
 
WVZ015-130800-  
WEST CENTRAL WEST VIRGINIA  
 
CITY SKY/WX TMP DP RH WIND PRES REMARKS
 
CHARLESTON CLEAR 46 45 96 CALM 30.01R  

 
 
WVZ509-031-039-130800-  
NORTH CENTRAL WEST VIRGINIA  
 
CITY SKY/WX TMP DP RH WIND PRES REMARKS
 
MORGANTOWN CLOUDY 50 48 93 CALM 29.99S FOG  
CLARKSBURG LGT RAIN 52 50 93 S3 29.98S  
BUCKHANNON CLOUDY 50 50 100 SW3 29.99S  

 
 
WVZ515-516-025-034-042-507-130800-  
SOUTHERN WEST VIRGINIA  
 
CITY SKY/WX TMP DP RH WIND PRES REMARKS
 
BECKLEY CLEAR 44 41 89 CALM 30.01S  
LOGAN FAIR 50 45 81 CALM 30.02S  
PINEVILLE N/A 44 42 91 MISG 30.06R  
BLUEFIELD CLEAR 48 40 73 NW9 30.02S  
LEWISBURG CLOUDY 44 43 94 CALM 30.00R  

 
 
WVZ525-526-130800-  
NORTHERN MOUNTAINS OF WEST VIRGINIA  
 
CITY SKY/WX TMP DP RH WIND PRES REMARKS
 
ELKINS CLOUDY 51 45 79 NW3 29.98F  

 
 
WVZ502-504-052-130800-  
EASTERN PANHANDLE OF WEST VIRGINIA  
 
CITY SKY/WX TMP DP RH WIND PRES REMARKS
 
PETERSBURG MOCLDY 51 51 100 CALM 29.97S  
CUMBERLAND CLOUDY 50 46 87 CALM 30.00S  
MARTINSBURG CLOUDY 49 47 93 CALM 29.94S FOG  

 
 
OHZ075-083-KYZ101-130800-  
SOUTHEAST OHIO/NORTHEAST KENTUCKY  
 
CITY SKY/WX TMP DP RH WIND PRES REMARKS
 
ATHENS FOG N/A N/A N/A CALM 30.01R VSB 1/2  
JACKSON FOG 39 37 93 CALM 30.03S VSB 3/4  
ASHLAND CLEAR 43 43 100 CALM 30.03R  

 
 
 
CLICK HERE TO GO TO PREVIOUS BULLETINS.

The Nexlab WV Page
The Nexlab OH Page
The Nexlab KY Page
The Nexlab VA Page Main Text Page